Wind_Speed
34 32 30 29 28 27 26 25 23 21 20 19 18 16 15 13 12 11 11 11 11 11 11 11 11 11 11 11 10 10 9 9 9 8 8 8 7 7 6 5 5 4 3
40 37 34 33 31 30 29 28 26 24 23 22 21 20 18 16 15 14 13 13 13 12 13 13 12 12 12 12 11 10 10 9 9 8 8 8 8 7 6 5 4 4 3
42 41 39 38 35 33 31 30 29 27 27 25 23 24 22 20 19 17 16 16 15 15 15 14 14 13 13 12 12 11 11 10 9 9 8 8 7 6 6 5 4 4 4
43 43 42 42 40 38 36 34 32 31 30 29 26 25 26 24 23 20 19 18 18 17 17 16 16 15 14 14 13 12 12 11 10 9 9 8 7 7 6 5 5 5 5
43 44 44 44 44 43 40 38 37 34 32 31 30 28 27 27 27 25 23 22 21 20 19 19 18 17 16 16 15 14 13 12 11 10 10 9 8 8 7 7 7 7 7
39 42 43 44 44 44 44 42 39 38 36 33 31 30 29 29 29 28 27 26 24 23 23 21 21 20 19 18 17 16 15 14 13 12 11 10 9 8 8 8 8 9 9
36 38 41 42 43 45 46 45 43 41 39 38 35 33 32 31 31 32 31 29 29 27 26 25 24 23 22 21 19 18 17 16 15 14 13 12 11 10 10 10 10 11 11
33 35 38 40 42 43 45 45 45 44 42 41 38 36 35 33 32 33 34 33 32 31 30 28 27 25 24 23 22 21 20 19 18 17 16 15 14 13 12 12 12 12 13
29 32 34 37 40 42 43 44 44 44 44 43 41 39 37 35 34 35 34 35 35 34 34 32 31 29 28 27 25 24 22 21 20 19 18 17 16 15 15 14 14 15 15
26 28 31 33 36 39 42 43 43 43 44 44 42 41 40 38 36 35 35 36 37 37 37 35 34 33 31 30 28 27 25 24 23 22 21 20 19 18 17 17 17 17 17
21 25 27 30 34 36 39 41 42 43 43 44 43 43 42 41 40 37 35 36 37 38 38 38 37 36 35 33 32 30 28 27 26 25 24 23 22 21 20 20 19 19 19
18 20 24 27 30 33 36 39 41 42 43 43 44 44 43 42 41 41 39 38 38 40 40 40 40 39 37 36 34 33 31 29 28 27 26 26 24 24 23 22 21 21 21
15 18 20 23 26 29 32 35 39 41 42 44 45 45 44 44 43 43 42 40 39 40 41 41 42 42 40 38 36 35 34 32 31 29 28 28 27 26 25 24 23 23 23
12 13 16 19 22 26 29 32 35 38 40 42 44 46 46 46 46 45 44 43 42 42 42 41 42 42 42 40 39 38 37 35 33 31 30 29 28 28 27 26 25 25 24
12 11 13 16 19 22 26 30 33 36 38 40 42 44 45 47 47 47 46 45 45 44 43 42 42 43 43 42 40 40 38 37 35 34 33 32 30 30 29 28 27 26 25
13 12 12 13 16 19 23 26 30 33 36 38 40 42 43 45 47 48 47 47 47 46 45 43 42 42 43 43 42 41 40 39 38 35 33 33 32 31 30 29 28 27 27
15 14 13 13 14 16 19 22 26 29 32 35 38 40 42 44 46 48 48 48 49 48 45 44 43 44 44 43 42 42 40 40 39 37 35 34 33 32 31 30 29 29 28
17 15 14 14 14 15 17 20 22 26 29 32 35 37 39 42 44 46 48 49 49 49 47 46 44 44 43 42 42 42 41 39 39 38 37 36 34 32 32 31 31 30 29
19 18 16 16 15 16 17 18 20 23 26 30 32 35 37 39 42 44 46 47 47 47 47 47 46 45 43 43 42 41 41 41 39 38 38 36 35 35 34 33 32 31 31
21 20 19 18 17 16 15 16 18 20 23 27 29 32 35 37 39 41 43 46 46 45 44 44 46 47 45 45 44 42 41 41 40 39 38 37 37 36 35 33 33 32 30
23 22 21 20 18 16 15 14 15 17 20 23 26 29 31 34 36 38 40 42 45 45 44 43 44 46 46 45 45 43 41 41 40 39 38 37 36 36 35 35 34 33 31
25 24 23 21 19 17 15 13 13 14 16 19 22 25 28 31 33 35 36 38 40 42 42 42 42 42 44 45 43 43 42 42 41 40 39 38 36 36 36 35 34 33 30
26 26 24 23 21 18 16 14 12 12 13 15 18 21 23 27 30 32 34 36 37 37 38 39 40 40 41 42 42 42 41 41 40 40 40 39 38 37 36 35 33 30 29
27 27 25 24 22 20 18 15 12 10 11 13 15 17 20 23 27 30 31 33 35 34 34 36 36 36 38 39 41 40 39 39 39 40 39 37 37 37 36 33 31 29 28
28 28 27 25 23 21 20 17 14 11 10 10 12 14 17 20 23 25 28 30 32 33 32 33 33 33 34 36 37 39 38 38 38 37 37 37 36 34 33 31 28 27 26
29 28 27 26 24 22 20 18 15 12 9 8 9 11 13 16 19 21 23 26 29 30 30 31 32 32 33 35 36 37 37 37 37 37 37 35 34 32 30 29 27 26 24
Wind_Direction
249 248 248 248 246 245 242 240 240 238 236 234 232 231 230 228 223 217 212 208 203 198 195 193 191 189 187 186 183 179 175 174 175 172 170 168 165 164 164 166 168 172 181
252 250 249 246 246 245 242 240 239 239 239 236 233 232 231 230 227 223 217 211 208 204 200 198 194 193 192 190 189 187 185 183 181 179 178 176 175 172 175 181 188 194 204
253 252 251 247 244 243 242 240 240 239 240 240 237 235 233 232 229 226 221 216 213 210 205 203 200 199 197 196 196 195 194 194 192 191 190 190 186 188 195 202 211 220 234
252 251 250 249 248 246 243 241 240 240 240 241 240 239 236 233 230 227 224 221 217 215 211 209 208 206 205 204 203 202 201 201 202 202 202 205 206 211 217 224 234 247 257
251 251 250 249 249 249 246 244 243 241 240 240 240 240 239 234 231 229 227 225 222 220 218 216 215 214 213 212 211 210 210 209 211 212 213 217 221 227 233 241 251 260 267
251 250 250 248 247 247 247 246 244 244 242 240 240 239 238 236 232 230 229 228 226 224 222 221 220 220 220 218 216 216 216 216 218 219 223 228 233 239 245 251 258 265 272
250 249 248 248 247 246 246 246 244 244 243 241 241 239 238 236 235 232 230 229 228 226 225 224 224 224 224 223 221 221 222 222 224 226 230 235 241 247 254 260 264 270 276
251 249 248 247 246 245 244 244 244 243 243 241 241 240 238 237 236 234 232 230 229 228 228 227 226 226 227 226 226 226 226 228 230 233 236 241 245 251 257 262 267 272 277
252 250 248 247 245 244 243 243 243 242 241 241 240 239 239 238 237 233 232 232 232 230 230 229 228 228 229 229 229 229 230 232 235 237 241 245 248 252 257 263 267 273 277
254 251 249 246 245 244 243 243 242 242 241 240 238 237 237 237 238 236 234 234 233 231 230 230 229 229 230 231 231 232 233 235 238 240 244 247 250 254 260 264 268 272 277
260 255 251 248 245 244 243 242 242 241 240 239 238 237 237 236 238 237 235 234 233 232 232 231 231 231 232 233 234 234 235 237 240 243 245 248 251 255 260 263 268 271 274
269 261 255 250 247 245 244 242 241 240 240 239 238 237 237 236 236 235 234 235 234 232 233 233 232 232 233 233 234 235 237 239 241 244 247 248 252 256 259 262 267 269 272
280 267 260 254 250 247 245 244 242 241 240 240 239 238 237 237 236 235 234 233 234 233 233 233 232 232 233 234 235 237 239 240 242 245 247 250 253 256 258 261 265 269 272
300 281 268 260 255 250 247 245 243 241 240 239 239 239 238 237 236 236 235 233 233 233 233 234 233 232 234 235 236 238 240 241 242 245 248 250 252 255 257 260 263 267 271
317 302 286 272 263 256 250 247 244 242 241 239 238 238 238 237 236 235 235 234 233 232 232 234 233 233 234 235 236 238 239 240 242 245 247 249 251 253 256 260 263 266 269
328 314 300 288 276 266 258 252 247 244 241 240 239 238 237 237 236 234 234 234 232 232 232 233 234 233 234 236 237 238 238 240 241 244 246 248 250 252 256 259 261 264 268
338 326 313 299 287 277 267 259 251 247 243 241 240 238 238 237 237 235 235 234 233 232 231 231 233 233 234 235 237 238 239 240 241 242 244 246 248 251 255 258 261 263 266
349 338 327 314 298 285 274 265 257 250 245 242 241 240 239 238 237 236 235 234 234 234 233 231 231 232 233 235 237 236 238 238 239 241 243 245 247 251 253 256 259 262 264
353 345 337 328 314 299 285 273 263 254 248 244 242 241 240 239 238 237 236 236 235 235 235 234 233 234 234 235 235 236 238 238 239 241 242 244 246 249 253 256 257 260 261
358 352 345 336 327 315 296 281 270 259 251 247 244 242 240 239 239 238 238 237 236 235 236 235 234 235 235 235 234 236 237 237 238 240 241 243 246 248 250 252 255 258 260
0 356 352 345 338 328 313 293 276 265 255 249 245 243 241 239 238 236 236 237 237 237 237 237 236 237 236 234 234 235 236 237 238 238 239 242 244 247 249 251 254 255 259
2 359 355 352 346 339 329 313 293 276 261 252 246 244 241 237 236 234 235 235 235 235 236 237 236 235 235 234 233 234 236 236 238 238 239 241 243 246 249 251 253 254 255
2 0 358 356 353 347 339 326 308 288 272 259 249 244 240 236 234 233 233 233 231 232 233 233 232 233 234 233 233 233 232 232 235 237 238 241 242 244 247 248 249 250 252
3 2 360 359 357 354 349 340 324 302 281 267 256 248 242 238 234 233 230 229 229 230 231 232 231 231 230 229 230 231 232 232 233 233 236 239 240 243 246 244 245 248 250
4 3 3 2 0 359 356 351 340 323 298 278 262 252 245 239 236 234 231 229 227 226 227 228 227 227 226 225 226 229 231 231 230 231 234 237 238 240 241 240 243 245 246
4 6 6 6 5 3 2 360 354 342 323 295 270 254 246 241 235 233 229 228 228 227 224 223 221 220 221 220 223 226 228 228 232 233 234 235 236 236 236 239 242 242 245
Height
5860 5861 5863 5865 5867 5869 5870 5873 5875 5877 5879 5881 5882 5884 5886 5887 5888 5889 5890 5892 5893 5895 5896 5898 5899 5901 5903 5904 5905 5906 5908 5909 5910 5911 5912 5913 5913 5914 5915 5915 5916 5916 5916
5852 5854 5856 5858 5860 5862 5865 5867 5870 5872 5874 5876 5878 5880 5882 5884 5886 5887 5888 5890 5891 5893 5895 5896 5898 5900 5902 5903 5904 5906 5907 5908 5909 5910 5911 5912 5913 5914 5914 5915 5915 5916 5916
5843 5845 5848 5850 5853 5855 5858 5861 5864 5866 5869 5871 5874 5876 5878 5880 5882 5884 5886 5887 5889 5891 5893 5895 5897 5898 5900 5902 5903 5905 5906 5908 5909 5910 5911 5911 5912 5913 5914 5914 5915 5915 5915
5834 5836 5839 5842 5845 5848 5851 5854 5857 5860 5863 5865 5868 5870 5873 5876 5878 5880 5882 5884 5886 5888 5890 5892 5895 5896 5898 5900 5902 5903 5905 5907 5908 5909 5910 5911 5911 5912 5913 5913 5914 5914 5914
5824 5827 5830 5833 5836 5839 5843 5846 5850 5853 5856 5859 5861 5864 5867 5870 5873 5876 5878 5881 5883 5885 5887 5890 5892 5894 5896 5898 5900 5902 5903 5905 5906 5907 5908 5909 5910 5911 5911 5912 5912 5912 5912
5815 5818 5821 5824 5827 5830 5834 5838 5842 5845 5849 5852 5854 5858 5861 5864 5867 5870 5873 5876 5879 5881 5884 5886 5888 5891 5893 5895 5897 5899 5901 5903 5904 5905 5907 5908 5908 5909 5909 5910 5910 5910 5910
5806 5809 5812 5814 5818 5821 5825 5829 5833 5837 5841 5844 5847 5851 5854 5857 5860 5864 5867 5870 5873 5876 5879 5882 5884 5887 5889 5892 5894 5896 5898 5900 5902 5903 5904 5905 5906 5907 5907 5908 5908 5908 5908
5798 5800 5803 5805 5808 5812 5816 5819 5824 5828 5832 5836 5839 5842 5846 5851 5854 5857 5860 5864 5867 5870 5874 5877 5880 5882 5885 5888 5890 5892 5895 5897 5898 5900 5901 5902 5903 5904 5904 5905 5905 5905 5905
5791 5792 5794 5797 5799 5803 5806 5810 5814 5819 5823 5827 5831 5835 5839 5843 5846 5849 5853 5856 5860 5864 5868 5871 5874 5877 5880 5883 5886 5888 5890 5893 5894 5896 5898 5899 5900 5901 5901 5902 5902 5902 5902
5784 5785 5786 5788 5791 5794 5797 5801 5805 5809 5814 5818 5822 5826 5830 5834 5838 5842 5845 5849 5852 5856 5860 5864 5867 5871 5874 5877 5880 5883 5886 5888 5890 5892 5893 5895 5896 5897 5897 5898 5898 5898 5898
5778 5778 5779 5781 5783 5786 5789 5792 5796 5800 5804 5808 5813 5817 5821 5825 5829 5833 5837 5841 5844 5848 5852 5856 5860 5864 5868 5871 5875 5877 5880 5883 5885 5887 5889 5890 5891 5892 5893 5894 5894 5894 5894
5773 5772 5773 5774 5775 5778 5780 5783 5787 5791 5795 5799 5803 5807 5812 5816 5820 5824 5828 5832 5836 5840 5844 5848 5852 5857 5860 5864 5868 5871 5874 5877 5879 5881 5883 5885 5886 5887 5888 5889 5889 5889 5889
5767 5767 5767 5767 5769 5770 5772 5775 5778 5781 5785 5789 5793 5798 5802 5806 5811 5815 5819 5823 5827 5831 5835 5840 5844 5848 5852 5857 5861 5864 5867 5870 5873 5875 5877 5879 5881 5882 5883 5883 5884 5884 5884
5763 5762 5762 5762 5762 5763 5765 5767 5769 5772 5776 5779 5783 5787 5792 5796 5801 5805 5810 5814 5818 5822 5827 5831 5835 5840 5844 5848 5853 5856 5860 5863 5866 5869 5871 5873 5874 5876 5877 5878 5878 5879 5879
5761 5759 5758 5757 5757 5757 5758 5759 5761 5764 5766 5770 5773 5777 5782 5786 5790 5795 5800 5804 5809 5813 5818 5822 5826 5831 5835 5840 5844 5848 5852 5855 5859 5861 5864 5866 5868 5869 5871 5872 5872 5873 5873
5758 5756 5754 5753 5752 5751 5751 5751 5753 5755 5758 5761 5764 5768 5771 5776 5780 5785 5789 5794 5799 5804 5808 5813 5817 5821 5826 5831 5835 5839 5843 5847 5851 5854 5857 5859 5861 5862 5864 5865 5866 5866 5867
5756 5753 5751 5749 5747 5746 5745 5745 5745 5747 5749 5752 5755 5758 5762 5766 5770 5775 5779 5784 5789 5794 5799 5803 5807 5812 5817 5822 5827 5830 5835 5839 5843 5846 5849 5851 5853 5855 5857 5858 5859 5860 5860
5755 5751 5748 5745 5742 5741 5739 5739 5739 5740 5741 5744 5746 5749 5753 5756 5760 5764 5769 5774 5779 5784 5789 5793 5798 5803 5808 5813 5817 5822 5826 5830 5834 5838 5841 5843 5846 5848 5849 5851 5852 5853 5853
5753 5749 5745 5741 5738 5736 5734 5732 5732 5732 5733 5735 5738 5741 5744 5747 5751 5755 5759 5764 5769 5774 5779 5784 5788 5793 5798 5803 5808 5812 5817 5822 5826 5829 5832 5835 5838 5840 5842 5843 5844 5845 5846
5752 5747 5743 5738 5734 5731 5728 5726 5725 5725 5726 5727 5729 5732 5735 5738 5742 5745 5750 5754 5759 5764 5769 5774 5779 5784 5789 5793 5798 5803 5808 5813 5817 5820 5824 5827 5829 5831 5834 5836 5837 5838 5838
5751 5746 5741 5736 5731 5727 5724 5721 5720 5719 5719 5720 5722 5724 5726 5729 5733 5737 5740 5745 5750 5755 5759 5764 5769 5774 5779 5784 5789 5794 5799 5804 5807 5811 5815 5818 5821 5824 5826 5828 5829 5830 5831
5750 5744 5739 5733 5728 5724 5720 5717 5715 5714 5713 5714 5715 5717 5719 5721 5725 5728 5732 5736 5741 5746 5751 5756 5760 5764 5770 5775 5780 5785 5790 5795 5799 5803 5806 5809 5812 5815 5818 5820 5821 5822 5824
5750 5744 5737 5732 5726 5721 5717 5713 5711 5709 5709 5709 5709 5710 5712 5714 5717 5720 5724 5728 5733 5737 5742 5747 5751 5756 5761 5767 5772 5777 5781 5786 5790 5795 5798 5800 5804 5807 5809 5811 5813 5814 5816
5749 5743 5736 5730 5725 5719 5715 5710 5707 5705 5704 5704 5704 5705 5706 5708 5710 5713 5716 5720 5725 5729 5734 5739 5744 5748 5752 5757 5762 5768 5772 5776 5781 5785 5789 5792 5795 5798 5801 5803 5805 5806 5808
5749 5743 5736 5730 5724 5719 5714 5709 5705 5703 5701 5700 5700 5700 5701 5702 5704 5707 5710 5714 5718 5722 5726 5730 5735 5740 5744 5749 5754 5759 5764 5768 5772 5776 5780 5784 5787 5790 5793 5795 5797 5799 5801
5750 5743 5737 5731 5725 5720 5714 5709 5705 5701 5699 5697 5697 5697 5697 5698 5699 5701 5704 5707 5711 5715 5719 5723 5728 5732 5737 5741 5746 5751 5756 5761 5765 5769 5772 5776 5779 5783 5785 5788 5790 5793 5794